sat.trackr.live / text

‹ back to catalog

YUNHAI-2 01B

NORAD 43910 · 2018-112B

PAYLOAD ACTIVE UNKNOWN

§ Identity

Operator
Country
PRC
Launch date
2018-12-29
Launch site
JSC
Launch vehicle
Mass (kg)
RCS (m²)

External: N2YO · Heavens-Above · Gunter

§ Orbital elements

Epoch: 2026-09-09T04:18:55.490688Z

Period
100.77 min
Inclination
50.0105°
Eccentricity
0.0004870
Mean motion
14.29030150 rev/d
Perigee alt
791.5 km
Apogee alt
798.5 km
Semi-major
7,173.1 km
B*
2.4331e-5
RAAN
111.3197°
Arg perigee
156.9503°
Mean anomaly
203.1631°
Rev number
40,225

§ Raw data

YUNHAI-2 01B1 43910U 18112B   26252.17980892 -.00000100  00000+0  24331-4 0  99992 43910  50.0105 111.3197 0004870 156.9503 203.1631 14.29030150402255

JSON: /api/v1/satellites/43910 · /tle

For live sub-satellite position, see the globe view (requires WebGL).

§ Visibility from observer

Set your observer location to see the next 7 days of passes ≥ 10°. The values pass through the URL so the page stays shareable.

No JS? Fill the form by hand. The geolocation button needs JavaScript.